Regional Weather Roundup
Issued by NWS Austin/San Antonio, TX

Home | Current Version | Previous Version | Text Only | Print | Product List | Glossary On
Versions: 1 2 3 4 5 6 7 8 9 10 11 12 13 14 15 16 17 18 19 20 21 22 23 24 25 26 27 28 29 30 31 32 33 34 35 36 37 38 39 40 41 42 43 44 45 46 47 48 49 50
000
ASUS44 KEWX 231701
RWREWX
SOUTH TEXAS REGIONAL WEATHER ROUNDUP
NATIONAL WEATHER SERVICE AUSTIN/SAN ANTONIO TX
1200 PM CDT WED MAY 23 2018

NOTE: "FAIR" INDICATED FEW OR NO CLOUDS BELOW 12,000 FEET WITH NO
SIGNIFICANT WEATHER AND/OR OBSTRUCTIONS TO VISIBILITY.

* - THESE STATIONS ARE NOT NWS OR FAA STATIONS...AND ARE NOT SUBJECT
    TO NWS AND FAA QUALITY CONTROL.

TXZ171-172-183>190-231800-
TEXAS HILL COUNTRY AND EDWARDS PLATEAU

CITY           SKY/WX    TMP DP  RH WIND       PRES   REMARKS
JUNCTION       MOSUNNY  N/A N/A N/A S6        30.07F
*LLANO         MOSUNNY   84  66  54 SE8       30.10S
BURNET         SUNNY     82  66  58 VRB7      30.09F
*HORSESHOE BAY PTSUNNY   86  65  50 SE6       30.06F
*KERRVILLE     PTSUNNY   79  65  60 S9        30.08S
*FREDERICKSBRG PTSUNNY   82  61  49 S8        30.08F
*ROCKSPRINGS   SUNNY     79  63  57 SE14      30.13F
*BOERNE STAGE  SUNNY     81  64  57 CALM      30.08S
*CASTROVILLE   MOSUNNY   83  65  54 S7        30.05F
HONDO          MOSUNNY   85  70  60 S9        30.05S
*UVALDE        MOSUNNY   82  67  59 SE8       30.04F
DEL RIO        SUNNY     83  66  56 SE14      29.99F
LAUGHLIN AFB   MOSUNNY   85  65  51 SE13G21   30.01S
CARRIZO SPRGS  MOSUNNY   84  66  54 SE7       29.99F
*EAGLE PASS    MOSUNNY   86  64  48 VRB7G18   30.00F
*FAITH RANCH   MOSUNNY   86  64  48 E9G16     30.00F
$$

TXZ173-191>194-202-209-217>225-228-231800-
CENTRAL AND SOUTH CENTRAL TEXAS

CITY           SKY/WX    TMP DP  RH WIND       PRES   REMARKS
GEORGETOWN     PTSUNNY   85  66  53 SE7       30.07F
AUSTIN/BERGSTM PTSUNNY   85  70  60 S8        30.04F
AUSTIN/MABRY   NOT AVBL
*AUSTIN/EXEC   MOSUNNY   82  68  61 CALM      30.06F
*LAGO VISTA    MOSUNNY   85  66  53 CALM      30.08F
SAN MARCOS     PTSUNNY   85  71  63 CALM      30.05F HX  90
NEW BRAUNFELS  PTSUNNY   86  70  58 SE5       30.03F HX  90
RANDOLPH AFB   PTSUNNY   83  69  60 SE9       30.04F
PT SAN ANTONIO MOSUNNY   84  68  59 S6        30.02F
SAN ANTONIO    PTSUNNY   84  68  58 S6        30.05S
STINSON FIELD  MOSUNNY   85  70  60 SE6       30.02F
*LA GRANGE     PTSUNNY   86  71  62 CALM      30.01F HX  91
*GIDDINGS      MOSUNNY   82  68  63 SW5       30.05F
*GONZALES      PTSUNNY   83  72  67 CALM      30.03F
$$

TXZ163>164-176>182-195>201-210>213-226-227-235-231800-
SOUTHEAST TEXAS

CITY           SKY/WX    TMP DP  RH WIND       PRES   REMARKS
COLLEGE STN    MOSUNNY   85  69  58 E3        30.05F
*BRYAN         PTSUNNY   81  68  64 CALM      30.07F
*CALDWELL      PTSUNNY   84  71  65 E5        30.05F
*CROCKETT      LGT RAIN  84  70  61 CALM      30.10F
*BRENHAM       PTSUNNY   87  70  56 E6        30.05F HX  91
HUNTSVILLE     MOSUNNY   86  69  56 CALM      30.06F HX  90
CONROE         PTSUNNY   85  70  60 VRB3      30.06S
HOUSTON BUSH   LGT RAIN  72  69  90 CALM      30.06R
HOUSTON HOBBY  PTSUNNY   76  74  93 NE7       30.04F
*HOUSTON SW AP FAIR      86  72  63 NE8       30.04S HX  92
PEARLAND       FAIR      78  67  68 E7        30.06S
HOUSTON HOOKS  TSTM      74  67  78 SW8G18    30.08R
ELLINGTON FLD  PTSUNNY   75  73  94 CALM      30.06F
SUGAR LAND     FAIR      87  71  58 NE12      30.03S HX  93
*HOUSTON EXEC    N/A     88  73  62 NE7       30.04F HX  96
*CLEVELAND MUN PTSUNNY   86  67  52 CALM      30.06F
*WHARTON       MOSUNNY   74  66  75 E12       30.04R
*COLUMBUS      FAIR      85  71  63 E6        30.04F HX  90
*EAGLE LAKE    MOSUNNY   88  72  58 SE3       30.02F HX  94
$$

TXZ214>216-236>238-231800-
THE UPPER TEXAS COAST

CITY           SKY/WX    TMP DP  RH WIND       PRES   REMARKS
*ORANGE        FAIR      82  73  74 S3        30.07S
PORT ARTHUR    LGT RAIN  74  64  71 S16       30.07R
GALVESTON      PTSUNNY   86  76  71 SE15      30.04F HX  96
ANGLETON       TSTM      73  70  90 NW14G23   30.04R VSB 1
*BAY CITY      MOSUNNY   86  73  65 E8        30.03R HX  93
PALACIOS       MOSUNNY   87  75  67 SE12      30.00F HX  96
$$

TXZ229>234-239>247-231800-
TEXAS COASTAL BEND AND RIO GRANDE PLAINS

CITY           SKY/WX    TMP DP  RH WIND       PRES   REMARKS
VICTORIA       PTSUNNY   87  69  54 S7        30.01F HX  91
*BEEVILLE      MOSUNNY   87  69  54 SE6       30.01S HX  91
ROCKPORT       MOSUNNY   86  74  67 SE10      30.00F HX  94
*PORT ARANSAS  NOT AVBL
*PORT LAVACA   PTSUNNY   82  75  80 E8        30.01F
*INGLESIDE     PTSUNNY   88  74  63 S8        30.00S HX  96
CORPUS CHRISTI PTSUNNY   84  72  67 E9        30.00S
CORPUS NAS     MOSUNNY   86  76  71 SE12      30.00S HX  96
*ROBSTOWN      MOSUNNY   86  71  62 S6        29.99F HX  91
ALICE          MOSUNNY   88  67  49 E9        29.98F HX  91
KINGSVILLE NAS NOT AVBL
COTULLA        MOSUNNY   87  66  49 SE8G17    30.00F
LAREDO         MOSUNNY   88  66  48 SE10      29.99F HX  90
$$

TXZ248>255-231800-
DEEP SOUTH TEXAS

CITY           SKY/WX    TMP DP  RH WIND       PRES   REMARKS
BROWNSVILLE    FAIR      89  75  63 E13       29.96F HX  99
PORT ISABEL    FAIR      88  73  61 E14       29.96F HX  95
*SOUTH PADRE   NOT AVBL
HARLINGEN      MOSUNNY   88  71  57 SE8       29.95F HX  94
*HEBBRONVILLE  MOSUNNY   85  65  52 SE12      30.01F
MCALLEN        MOSUNNY   90  72  55 SE10      29.96F HX  97
*WESLACO       HAZE     N/A N/A N/A SE10      29.96F VSB 1/4
FALFURRIAS     MOSUNNY   90  66  45 S7        29.98S HX  93
EDINBURG       PTSUNNY   91  68  47 SE9G16    29.97F HX  94
*ZAPATA        FAIR      88  63  43 SE8G16    29.96F
$$

TXZ213>215-236>238-242>244-246-247-251-254-255-231800-
CMAN STATIONS

STATION/POSITION TIME  TEMP    WIND        PRES    WAVE
                       AIR SEA DIR/SP/G            HT/PER
                 (UTC) (F)     (DEG/KT/KT) (MB)    (FT/S)
SABINE PASS      1630   72 87  220/  4/  8 1020.1
SEA RIM ST PARK  1600   77     160/ 21/ 25 1018.8
NORTH JETTY/GLS  1618   81 83  150/ 12/ 15 1016.8
EAGLE POINT      1630   81 83  150/  6/  8 1017.1
MORGANS POINT    1630   79 83  210/  6/ 14 1017.2
PORT O`CONNOR    1630   81 82  130/  9/ 11 1015.9
PORT ARANSAS     1600   80 82  120/  8/  9 1016.2
MALAQUITE BEACH  1624   80 82  100/  8/  9 1015.7
BAFFIN BAY       1624   81 83   90/  9/ 11 1016.1
PORT ISABEL      1624   82 82  110/  8/ 14 1015.3
$$




USA.gov is the U.S. government's official web portal to all federal, state and local government web resources and services.